sat.trackr.live / text

‹ back to catalog

STARLINK-37413

NORAD 68789 · 2026-086Z

PAYLOAD ACTIVE UNKNOWN

§ Identity

Operator
Country
US
Launch date
2026-04-19
Launch site
AFWTR
Launch vehicle
Mass (kg)
RCS (m²)

Purposes: comms

External: N2YO · Heavens-Above · Gunter

§ Orbital elements

Epoch: 2026-09-18T09:09:23.925888Z

Period
93.91 min
Inclination
97.2847°
Eccentricity
0.0001536
Mean motion
15.33451273 rev/d
Perigee alt
464.5 km
Apogee alt
466.6 km
Semi-major
6,843.7 km
B*
6.9816e-4
RAAN
296.8903°
Arg perigee
92.5610°
Mean anomaly
267.5808°
Rev number
2,336

§ Raw data

STARLINK-374131 68789U 26086Z   26261.38152692  .00022536  00000+0  69816-3 0  99932 68789  97.2847 296.8903 0001536  92.5610 267.5808 15.33451273 23366

JSON: /api/v1/satellites/68789 · /tle

For live sub-satellite position, see the globe view (requires WebGL).

§ Visibility from observer

Set your observer location to see the next 7 days of passes ≥ 10°. The values pass through the URL so the page stays shareable.

No JS? Fill the form by hand. The geolocation button needs JavaScript.